Weather History for Cleveland, OH

Change the Weather History Date:

Thursday, September 19, 2013

  Actual Average Record
Temperature  
Mean Temperature 70 °F 64 °F  
Max Temperature 79 °F 73 °F 93 °F (1955)
Min Temperature 61 °F 55 °F 40 °F (1973)
Degree Days  
Heating Degree Days 0 3  
Month to date heating degree days 38 33  
Since 1 July heating degree days 45 45  
Cooling Degree Days 5 2  
Month to date cooling degree days 82 71  
Year to date cooling degree days 844 786  
Growing Degree Days 20 (Base 50)    
Moisture  
Dew Point 63 °F    
Average Humidity 78    
Maximum Humidity 93    
Minimum Humidity 62    
Precipitation  
Precipitation T in 0.13 in 1.48 in (2003)
Month to date precipitation 0.27 2.40  
Year to date precipitation 28.48 27.94  
Snow  
Snow 0.00 in 0.00 in - ()
Month to date snowfall 0.0 0.0  
Since 1 July snowfall 0.0 0.0  
Since 1 September snowfall 0.0 0.0  
Snow Depth 0.00 in    
Sea Level Pressure  
Sea Level Pressure 30.07 in    
Wind  
Wind Speed 10 mph (South)    
Max Wind Speed 16 mph    
Max Gust Speed 20 mph    
Visibility 7 miles    
Events      
T = Trace of Precipitation, MM = Missing Value Source: NWS Daily Summary

Daily Weather History Graph

Daily Weather History Graph

Search for Another Location

Airport:

Trip Planner

Search our weather history database for the weather conditions in past years. The results will help you decide how hot, cold, wet, or windy it might be!

Date:

Astronomy

Sep. 19, 2013 Rise Set
Actual Time 7:12 AM EDT 7:29 PM EDT
Civil Twilight 6:44 AM EDT 7:56 PM EDT
Nautical Twilight 6:11 AM EDT 8:29 PM EDT
Astronomical Twilight 5:38 AM EDT 9:02 PM EDT
Moon 7:25 PM EDT (9/19) 7:20 AM EDT (9/19)
Length of Visible Light 13h 12m
Length of Day
12h 17m
Full, 100% of the Moon is Illuminated
Sep 19
Full
Sep 26
Last Quarter
Oct 4
New
Oct 11
First Quarter
Oct 18
Full

Hourly Weather History & Observations

Time (EDT) Temp. Dew Point Humidity Pressure Visibility Wind Dir Wind Speed Gust Speed Precip Events Conditions
12:51 AM 61.0 °F 57.0 °F 87% 30.11 in 7.0 mi SSE 8.1 mph - N/A   Clear
1:22 AM 61.0 °F 57.0 °F 87% 30.12 in 5.0 mi South 10.4 mph - N/A   Mostly Cloudy
1:51 AM 62.1 °F 59.0 °F 90% 30.12 in 5.0 mi South 8.1 mph - N/A   Overcast
2:51 AM 63.0 °F 60.1 °F 90% 30.10 in 6.0 mi South 10.4 mph - N/A   Overcast
3:51 AM 64.0 °F 60.1 °F 87% 30.10 in 6.0 mi South 6.9 mph - N/A   Overcast
4:51 AM 64.9 °F 61.0 °F 87% 30.09 in 6.0 mi South 6.9 mph - N/A   Overcast
5:35 AM 64.0 °F 61.0 °F 90% 30.10 in 5.0 mi South 10.4 mph - N/A   Mostly Cloudy
5:48 AM 64.4 °F 60.8 °F 88% 30.09 in 5.0 mi South 9.2 mph - N/A   Mostly Cloudy
5:51 AM 64.0 °F 61.0 °F 90% 30.08 in 5.0 mi South 8.1 mph - N/A   Mostly Cloudy
6:51 AM 64.9 °F 61.0 °F 87% 30.09 in 5.0 mi South 8.1 mph - N/A   Overcast
7:51 AM 66.0 °F 62.1 °F 87% 30.10 in 4.0 mi South 9.2 mph - N/A   Overcast
8:51 AM 66.9 °F 62.1 °F 84% 30.11 in 4.0 mi South 9.2 mph - N/A   Haze
9:32 AM 68.0 °F 63.0 °F 84% 30.12 in 5.0 mi South 9.2 mph - N/A   Haze
9:51 AM 69.1 °F 63.0 °F 81% 30.11 in 6.0 mi South 11.5 mph - N/A   Haze
10:05 AM 69.1 °F 63.0 °F 81% 30.11 in 6.0 mi South 10.4 mph - N/A   Haze
10:51 AM 73.0 °F 64.0 °F 73% 30.09 in 8.0 mi SSW 10.4 mph - N/A   Mostly Cloudy
11:10 AM 73.9 °F 64.9 °F 73% 30.10 in 9.0 mi South 8.1 mph - N/A   Scattered Clouds
11:38 AM 73.9 °F 64.0 °F 71% 30.09 in 10.0 mi South 9.2 mph - N/A   Mostly Cloudy
11:51 AM 75.0 °F 64.9 °F 71% 30.08 in 10.0 mi South 10.4 mph - N/A   Mostly Cloudy
12:51 PM 75.9 °F 64.0 °F 67% 30.08 in 10.0 mi South 9.2 mph - N/A   Scattered Clouds
1:51 PM 78.1 °F 64.0 °F 62% 30.06 in 9.0 mi SSW 9.2 mph - N/A   Scattered Clouds
2:16 PM 78.1 °F 64.9 °F 64% 30.06 in 9.0 mi SSW 8.1 mph - N/A   Mostly Cloudy
2:51 PM 78.1 °F 64.0 °F 62% 30.04 in 10.0 mi SSW 10.4 mph - N/A   Mostly Cloudy
3:51 PM 77.0 °F 64.9 °F 66% 30.03 in 9.0 mi SSW 10.4 mph - N/A   Overcast
4:51 PM 75.0 °F 64.0 °F 69% 30.05 in 7.0 mi SSW 13.8 mph - N/A   Overcast
5:12 PM 73.9 °F 64.0 °F 71% 30.06 in 7.0 mi SSW 12.7 mph - N/A   Overcast
5:46 PM 73.4 °F 64.4 °F 73% 30.06 in 6.0 mi SSW 9.2 mph - N/A   Haze
5:51 PM 73.0 °F 64.0 °F 73% 30.05 in 6.0 mi SSW 10.4 mph - N/A   Haze
6:51 PM 72.0 °F 64.9 °F 78% 30.04 in 6.0 mi South 11.5 mph - N/A   Haze
7:51 PM 71.1 °F 64.0 °F 78% 30.01 in 8.0 mi South 10.4 mph - N/A   Mostly Cloudy
8:51 PM 69.1 °F 64.0 °F 84% 30.00 in 6.0 mi SSE 11.5 mph - N/A   Haze
9:51 PM 69.1 °F 64.0 °F 84% 30.01 in 6.0 mi South 9.2 mph - N/A   Haze
10:01 PM 69.1 °F 64.0 °F 84% 30.02 in 6.0 mi South 11.5 mph - N/A   Haze
10:46 PM 69.8 °F 62.6 °F 78% 30.03 in 8.0 mi South 9.2 mph - N/A   Scattered Clouds
10:51 PM 69.1 °F 63.0 °F 81% 30.01 in 9.0 mi South 11.5 mph - N/A   Scattered Clouds
11:51 PM 69.1 °F 64.0 °F 84% 30.01 in 6.0 mi South 10.4 mph - N/A   Haze